Location: Andrest
(43.3200°N, 0.0641°E)
Time: 05:30:37
(UTC+00:00)

CZ-4 R/B - Pass Details

Date: 01 December 2020
Orbit: 532 x 598 km, 97.7° (Epoch: 27 January)

Event Time Altitude Azimuth Distance (km) Brightness Sun altitude
Rises 19:08:58 0° 188° (S) 2,706 5.0 -29.1°
Enters shadow 19:10:41 - 195° (SSW) 2,031 4.4 -29.5°
Exits shadow 19:16:40 22° 310° (NW) 1,259 3.5 -30.5°
Drops below altitude 10° 19:18:31 10° 329° (NNW) 1,879 4.3 -30.9°
Sets 19:20:52 0° 339° (NNW) 2,794 5.2 -31.3°
